Temp
56 57 57 57 57 57 57 56 56 56 55 55 54 54 54 53 53 54 53 53 52 54 51 50 52 51 51 52 51 48 47 47 46 44 45 47 44 46 43 47 42 41 39 38 40 36 35 51 48 46 49 52 52 51
56 56 57 57 57 57 56 56 55 55 54 54 54 54 53 53 53 52 54 53 53 52 49 50 50 50 49 49 52 49 49 49 53 48 47 48 44 45 47 45 45 41 48 46 46 47 51 53 51 52 52 49 49 48
55 56 56 56 56 56 56 56 55 55 54 54 54 54 54 53 52 51 54 53 52 51 50 49 47 50 52 50 52 50 51 50 49 49 49 48 43 49 44 45 46 47 49 45 44 50 50 52 51 51 50 48 48 47
52 55 55 55 56 56 56 56 55 55 54 54 55 55 54 53 51 50 53 52 51 52 47 47 51 48 50 51 50 50 50 50 50 50 48 47 44 48 47 45 44 48 45 47 47 49 50 49 51 49 49 49 48 49
51 53 54 55 55 55 55 55 55 55 54 54 55 54 54 52 50 52 52 51 50 48 46 46 47 47 48 49 48 49 50 49 50 47 45 44 47 44 45 42 42 47 47 44 47 52 51 49 50 49 47 47 48 47
51 52 53 54 54 55 55 54 54 54 53 53 53 54 53 51 50 51 47 49 50 49 46 42 45 44 46 48 47 47 48 48 49 48 47 49 45 44 41 41 51 51 51 52 50 51 50 49 49 49 47 47 48 47
49 50 52 54 54 54 54 54 54 53 53 53 53 53 52 51 50 47 45 47 48 49 44 40 38 42 44 45 45 45 46 46 47 46 42 44 44 43 41 38 49 50 50 49 50 49 45 48 46 47 47 47 47 47
49 49 51 53 54 54 54 54 53 53 53 53 53 52 51 50 48 46 47 47 48 46 44 36 35 37 41 40 39 42 42 43 42 44 42 41 41 40 35 46 47 48 49 47 47 47 48 47 47 46 46 46 45 47
49 49 49 52 53 53 53 53 53 52 52 52 51 50 49 47 45 46 46 46 47 45 39 36 35 34 40 39 40 40 42 36 40 38 38 38 38 32 41 45 45 46 45 45 45 45 45 44 44 45 45 45 44 44
48 48 49 50 53 53 53 53 52 52 51 50 48 44 40 43 46 46 44 42 42 42 41 36 39 34 39 38 37 38 39 37 32 37 38 32 35 43 45 46 49 47 46 46 40 39 40 40 42 43 43 44 44 43
48 48 48 49 52 52 53 53 52 51 50 45 40 39 39 46 43 40 36 35 37 34 38 38 37 34 39 36 38 39 35 36 30 33 32 32 32 40 45 46 46 47 47 45 46 44 43 42 41 41 42 43 43 43
48 48 48 48 52 52 52 52 51 49 45 45 42 42 40 38 35 33 33 33 31 33 35 34 35 38 37 40 38 35 33 32 28 35 30 27 37 40 42 43 44 46 46 44 44 44 44 43 44 43 42 42 42 42
47 47 48 49 52 52 52 51 51 47 48 43 39 34 34 33 29 29 26 29 30 35 32 32 31 36 35 38 36 34 29 29 35 28 28 34 38 41 42 43 42 42 42 42 43 44 43 43 42 41 40 41 42 42
45 46 48 50 52 52 52 50 48 47 41 34 32 29 32 29 32 34 35 34 35 35 33 35 32 34 36 33 34 28 32 32 25 24 27 38 39 42 43 43 44 44 43 38 37 39 38 35 36 37 37 39 39 39
48 48 49 51 51 51 51 48 48 43 36 32 32 30 30 36 33 34 34 34 33 37 34 32 33 36 32 29 33 30 25 24 28 29 35 37 40 42 42 42 43 42 43 42 42 38 35 34 34 36 38 39 39 39
49 50 50 51 51 50 48 47 43 38 32 32 31 30 34 33 29 31 33 32 34 35 35 35 31 30 30 31 28 27 27 26 31 34 37 40 39 40 40 41 41 42 41 41 41 40 40 39 38 38 40 39 39 38
49 41 50 50 50 48 47 37 35 32 32 31 30 35 35 35 33 34 37 35 37 35 32 32 28 29 29 28 27 31 29 33 35 35 37 38 39 40 40 40 39 39 39 39 39 39 38 39 38 35 33 38 39 38
43 48 49 47 45 41 34 33 32 32 29 31 31 32 35 37 35 34 34 35 34 34 33 32 31 27 27 26 28 33 34 36 36 37 38 39 40 41 40 39 39 38 38 36 34 34 34 33 32 34 35 37 37 37
40 44 46 46 43 34 32 31 32 27 28 31 31 33 33 32 34 37 35 34 33 36 33 31 29 28 30 32 34 35 35 35 38 40 41 40 39 39 38 36 34 34 34 34 35 37 38 39 39 38 38 38 37 38
41 40 40 40 39 33 29 29 33 30 27 28 31 30 30 30 31 32 32 32 33 33 30 28 31 35 35 38 37 38 38 39 38 36 37 41 43 39 36 35 37 38 38 38 38 40 38 38 40 40 39 38 37 37
39 39 40 37 33 32 31 30 27 28 28 27 29 29 27 30 30 30 29 32 30 28 28 33 36 39 40 42 43 41 40 40 39 40 39 37 41 41 39 39 38 39 38 37 37 38 39 38 39 40 39 39 39 39
38 42 36 36 30 30 29 30 28 28 27 27 27 28 26 26 26 27 29 27 27 31 33 36 37 38 38 37 39 39 40 40 39 39 40 39 36 36 36 37 36 35 35 36 37 37 38 39 40 40 39 39 40 39
41 38 32 32 27 27 25 31 26 27 23 22 26 24 23 23 23 26 24 26 30 34 35 35 37 38 37 39 37 36 37 36 37 38 39 39 40 38 37 37 38 35 34 36 38 37 36 39 39 38 38 38 37 36
40 31 26 24 26 22 28 25 27 24 24 23 23 20 20 22 23 22 22 27 31 33 32 32 35 35 37 35 34 36 38 39 37 37 38 37 35 37 39 39 41 40 38 38 37 37 37 37 38 37 37 35 35 34
28 26 27 21 22 22 21 22 21 22 19 21 19 18 18 19 19 18 19 25 27 31 34 35 35 35 35 37 38 39 40 38 36 35 38 39 38 38 37 38 39 40 39 35 34 35 35 35 35 34 34 33 32 32
20 25 24 22 21 22 21 18 19 19 20 18 18 14 16 18 15 18 24 26 31 34 35 34 34 34 34 36 35 37 39 41 37 35 37 39 37 35 33 32 32 35 39 37 35 34 34 34 34 32 32 33 35 33
18 22 25 28 25 22 20 20 21 19 16 16 17 13 16 12 15 23 30 31 33 34 35 37 36 36 37 38 40 41 41 39 36 38 41 40 39 38 35 33 32 36 39 37 35 34 33 33 32 32 32 32 33 32
27 25 18 22 20 22 17 18 17 16 19 21 19 13 13 18 22 30 30 34 35 35 34 34 35 37 37 38 39 39 38 38 37 35 35 35 36 35 35 35 36 37 36 35 35 34 33 33 30 31 30 30 31 32
26 25 25 14 17 19 19 19 19 23 27 21 20 21 21 27 31 32 34 33 33 31 30 32 35 35 34 34 34 34 33 32 30 26 25 27 30 32 34 34 34 34 34 33 36 36 35 34 31 31 31 31 32 32
24 28 22 18 17 19 26 26 26 27 27 28 29 28 28 31 34 34 33 32 30 30 33 35 36 35 33 32 32 32 34 33 31 29 27 27 31 34 32 32 33 33 34 34 33 33 35 34 33 32 31 30 29 29
26 25 22 23 21 26 28 27 26 29 26 25 25 25 29 31 35 38 37 37 35 34 32 32 32 32 31 30 29 29 29 33 33 32 32 33 34 33 33 33 33 33 33 32 31 29 30 30 30 29 29 28 27 28
21 21 18 14 19 20 20 22 21 23 23 21 24 23 23 24 22 29 33 32 32 31 34 34 31 32 34 34 34 34 36 34 33 31 28 31 32 32 33 33 32 32 31 29 28 27 28 29 29 29 28 27 26 24
15 16 13 16 16 16 16 18 15 15 15 16 19 21 23 24 21 30 30 31 36 35 35 34 35 35 33 30 32 33 35 33 33 36 36 36 36 35 33 32 31 29 27 26 26 27 27 27 28 29 28 27 26 24
MSLP
1016.04 1016.39 1016.73 1016.97 1017.28 1017.63 1018.03 1018.40 1018.70 1018.83 1019.14 1019.30 1019.38 1019.33 1019.22 1019.05 1018.96 1018.77 1018.65 1018.69 1018.16 1017.11 1017.18 1017.33 1017.27 1017.13 1017.21 1017.03 1016.57 1017.52 1017.73 1017.64 1017.42 1016.61 1015.77 1015.09 1015.12 1015.35 1015.53 1015.33 1015.72 1015.64 1015.87 1015.84 1015.78 1015.35 1014.69 1014.60 1015.14 1015.31 1015.64 1015.94 1016.36 1016.62
1015.23 1015.70 1016.04 1016.37 1016.68 1017.04 1017.41 1017.87 1018.24 1018.49 1018.82 1019.08 1019.21 1019.31 1019.30 1019.18 1019.07 1018.97 1018.50 1018.80 1018.63 1017.91 1018.14 1018.39 1018.46 1018.57 1018.47 1018.26 1017.77 1017.77 1017.54 1017.11 1016.67 1016.41 1016.19 1015.67 1015.29 1015.41 1014.94 1014.61 1015.57 1015.21 1014.55 1014.53 1014.56 1014.10 1014.43 1014.85 1015.24 1015.87 1016.33 1016.74 1017.06 1017.44
1014.44 1014.90 1015.35 1015.74 1016.12 1016.41 1016.72 1017.29 1017.80 1018.13 1018.31 1018.73 1018.92 1019.14 1019.32 1019.26 1019.22 1019.13 1018.74 1018.89 1018.57 1018.04 1018.24 1018.29 1018.46 1018.92 1019.09 1018.95 1018.77 1018.11 1017.84 1017.83 1017.58 1017.74 1016.82 1016.26 1015.83 1015.44 1014.80 1014.54 1014.68 1014.93 1014.99 1014.85 1014.65 1014.13 1014.82 1015.30 1015.99 1016.51 1017.04 1017.36 1017.76 1017.97
1014.12 1014.08 1014.54 1015.02 1015.48 1015.89 1016.11 1016.59 1017.24 1017.66 1017.85 1018.28 1018.55 1018.80 1019.15 1019.34 1019.35 1019.37 1018.98 1019.18 1018.95 1018.22 1017.87 1018.31 1018.71 1018.77 1019.16 1019.01 1018.91 1018.79 1018.44 1018.41 1018.18 1017.93 1017.27 1016.76 1016.36 1016.23 1015.53 1015.63 1015.19 1014.93 1015.27 1014.52 1014.28 1014.37 1014.84 1015.45 1016.17 1016.93 1017.40 1017.69 1017.79 1017.93
1013.85 1013.72 1013.67 1014.18 1014.75 1015.23 1015.64 1015.92 1016.55 1017.13 1017.49 1017.84 1018.23 1018.52 1018.87 1019.29 1019.51 1019.39 1019.35 1019.37 1019.36 1019.31 1018.35 1018.35 1018.82 1019.24 1019.24 1018.97 1018.76 1018.71 1018.57 1018.46 1018.14 1018.01 1017.75 1017.25 1017.16 1017.11 1016.62 1016.31 1014.76 1014.45 1014.01 1014.16 1013.74 1014.11 1014.72 1015.71 1016.70 1017.39 1017.57 1017.86 1018.08 1018.18
1013.52 1013.45 1013.16 1013.32 1013.88 1014.50 1015.01 1015.39 1015.85 1016.47 1017.06 1017.48 1017.99 1018.33 1018.76 1019.22 1019.56 1019.44 1019.41 1019.52 1019.57 1019.30 1018.79 1018.68 1019.29 1019.16 1019.33 1019.17 1019.00 1018.83 1018.67 1018.53 1018.32 1018.04 1017.87 1017.66 1018.12 1017.98 1016.90 1015.55 1013.68 1013.83 1014.22 1014.34 1014.32 1015.02 1015.67 1016.38 1016.99 1017.46 1017.63 1017.84 1017.94 1018.02
1013.08 1012.98 1012.77 1012.46 1012.96 1013.59 1014.26 1014.81 1015.33 1015.90 1016.48 1017.09 1017.67 1018.17 1018.63 1019.22 1019.57 1019.84 1020.00 1019.88 1019.69 1019.55 1019.00 1018.84 1019.05 1019.56 1019.64 1019.46 1019.41 1019.28 1019.28 1018.94 1018.47 1018.20 1018.16 1018.09 1018.34 1018.34 1017.31 1015.48 1014.18 1014.32 1014.59 1015.09 1015.39 1015.77 1016.32 1016.73 1017.15 1017.67 1017.89 1017.95 1018.02 1017.96
1012.40 1012.26 1011.91 1011.75 1011.95 1012.54 1013.27 1014.08 1014.69 1015.41 1016.06 1016.74 1017.43 1018.04 1018.64 1019.30 1019.87 1020.04 1019.83 1019.91 1019.87 1019.46 1019.20 1019.12 1019.18 1019.71 1019.89 1019.48 1019.50 1019.72 1019.29 1019.29 1019.19 1018.69 1018.74 1018.25 1018.44 1018.24 1016.80 1014.76 1014.79 1015.03 1015.40 1015.92 1016.39 1016.66 1016.66 1017.20 1017.51 1017.71 1017.96 1018.02 1017.84 1017.58
1011.22 1011.37 1011.28 1011.19 1010.85 1011.45 1012.34 1013.21 1014.09 1014.79 1015.63 1016.61 1017.39 1018.16 1018.84 1019.18 1019.62 1019.60 1019.83 1020.04 1019.86 1019.93 1019.30 1019.23 1018.96 1019.21 1019.75 1019.69 1019.72 1019.87 1019.54 1019.32 1019.69 1019.10 1018.96 1018.89 1017.71 1016.54 1014.62 1014.59 1014.77 1015.30 1015.64 1016.03 1016.76 1017.36 1017.87 1018.25 1018.53 1018.54 1018.45 1018.20 1018.03 1017.87
1010.23 1010.29 1010.40 1010.44 1009.71 1010.33 1011.36 1012.33 1013.38 1014.26 1015.09 1016.22 1017.55 1018.23 1018.64 1019.03 1019.46 1019.75 1019.89 1020.01 1019.64 1019.41 1019.47 1018.88 1018.94 1019.19 1019.24 1019.34 1019.44 1019.60 1019.63 1019.29 1019.25 1018.99 1019.20 1018.82 1016.77 1015.09 1014.79 1014.93 1015.01 1015.66 1016.24 1016.78 1017.36 1017.90 1018.21 1018.39 1018.34 1018.20 1018.16 1018.20 1018.17 1017.95
1008.81 1009.02 1009.09 1009.06 1008.60 1009.18 1010.12 1011.52 1012.64 1013.93 1014.76 1015.62 1016.82 1017.94 1019.09 1019.43 1019.50 1019.57 1019.60 1019.52 1019.29 1019.09 1018.74 1018.63 1018.82 1018.97 1019.56 1018.91 1018.76 1019.21 1019.30 1019.44 1019.35 1019.27 1019.11 1017.86 1016.35 1015.28 1015.05 1015.13 1015.66 1016.05 1016.56 1017.06 1017.36 1017.91 1018.30 1018.47 1018.53 1018.43 1018.20 1018.08 1017.89 1017.73
1007.33 1007.46 1007.67 1007.80 1007.30 1007.90 1008.85 1010.50 1011.64 1012.84 1013.91 1014.73 1016.19 1017.76 1018.82 1019.22 1019.28 1019.36 1018.83 1018.99 1018.77 1017.87 1018.38 1018.61 1018.94 1018.96 1019.27 1019.16 1018.74 1019.36 1019.16 1019.57 1019.26 1019.38 1019.06 1017.32 1015.83 1015.81 1015.69 1015.72 1016.04 1016.43 1016.85 1017.25 1017.62 1017.87 1018.20 1018.44 1018.61 1018.69 1018.58 1018.15 1017.82 1017.44
1005.63 1005.67 1005.80 1006.04 1005.80 1006.50 1007.66 1009.19 1010.61 1012.27 1013.39 1014.90 1015.73 1017.16 1017.28 1018.47 1018.17 1017.52 1017.41 1017.45 1017.32 1017.23 1018.17 1018.77 1019.09 1019.05 1019.50 1019.22 1019.00 1019.03 1019.18 1019.20 1019.32 1018.97 1017.71 1016.17 1015.84 1015.95 1016.23 1016.50 1016.88 1017.29 1017.60 1017.76 1017.86 1018.01 1018.18 1018.35 1018.51 1018.59 1018.40 1018.10 1017.67 1017.16
1003.00 1003.00 1003.40 1003.86 1004.16 1005.16 1006.37 1008.35 1010.08 1011.31 1012.94 1014.48 1015.09 1016.23 1015.85 1016.52 1015.52 1014.77 1014.96 1015.35 1016.34 1016.73 1017.65 1018.18 1018.81 1018.97 1019.03 1019.10 1018.94 1018.99 1019.18 1019.29 1018.97 1018.25 1016.63 1015.90 1016.04 1016.37 1016.89 1017.30 1017.52 1017.81 1017.96 1018.15 1018.25 1018.24 1018.22 1018.22 1018.13 1017.97 1017.89 1017.56 1017.19 1016.52
998.36 999.36 1000.51 1001.54 1002.69 1003.89 1005.49 1007.63 1009.01 1010.58 1012.82 1013.69 1014.01 1013.92 1014.10 1014.01 1014.26 1014.53 1015.06 1015.82 1016.64 1017.15 1017.41 1018.27 1018.72 1018.83 1018.92 1019.00 1018.81 1018.99 1019.13 1018.49 1017.86 1016.83 1016.40 1016.38 1016.47 1016.77 1017.12 1017.45 1017.68 1017.76 1017.78 1017.85 1017.94 1017.93 1017.93 1017.80 1017.58 1017.20 1016.97 1016.75 1016.36 1015.88
995.79 997.89 999.14 999.99 1001.44 1002.94 1005.23 1007.37 1009.35 1011.14 1012.47 1012.80 1012.85 1013.04 1013.35 1013.58 1014.42 1014.98 1015.44 1015.76 1016.15 1016.86 1017.47 1017.91 1018.26 1018.36 1018.29 1018.18 1018.26 1017.96 1017.83 1017.07 1016.62 1016.56 1016.51 1016.66 1016.99 1017.26 1017.41 1017.54 1017.66 1017.72 1017.79 1017.72 1017.61 1017.33 1017.12 1016.95 1016.65 1016.21 1015.98 1015.91 1015.49 1015.19
996.03 996.84 997.30 999.04 1000.82 1002.86 1005.13 1007.57 1010.22 1011.30 1012.11 1012.29 1012.43 1012.63 1012.48 1012.55 1013.44 1014.37 1014.99 1015.54 1015.89 1016.53 1016.96 1017.39 1017.68 1017.67 1018.20 1017.72 1017.46 1017.33 1016.76 1016.35 1016.37 1016.40 1016.63 1016.76 1016.95 1017.06 1017.16 1017.17 1017.20 1017.24 1017.17 1017.02 1016.88 1016.60 1016.22 1016.02 1016.01 1015.86 1015.36 1014.70 1014.38 1013.90
996.20 996.32 997.32 999.03 1001.28 1004.22 1007.22 1008.81 1009.88 1010.92 1011.78 1011.88 1012.03 1012.49 1013.00 1013.06 1013.33 1014.56 1015.12 1015.46 1015.99 1016.41 1016.60 1016.71 1017.10 1017.41 1016.95 1016.69 1016.47 1016.26 1016.23 1016.24 1016.45 1016.55 1016.61 1016.72 1016.77 1016.85 1016.83 1016.68 1016.58 1016.47 1016.43 1016.37 1016.34 1016.10 1015.79 1015.58 1015.31 1014.74 1014.06 1013.48 1013.25 1012.81
998.40 998.50 999.07 1000.09 1001.71 1004.64 1007.90 1010.01 1010.38 1011.14 1012.05 1012.32 1012.68 1013.06 1013.44 1013.85 1014.32 1014.51 1015.11 1015.84 1016.26 1016.50 1016.76 1016.79 1016.55 1016.19 1015.96 1015.77 1015.50 1015.55 1015.84 1016.18 1016.30 1016.20 1016.32 1016.35 1016.34 1016.22 1016.04 1016.10 1016.05 1016.02 1015.86 1015.56 1015.34 1015.09 1014.66 1014.27 1013.87 1013.36 1012.84 1012.52 1012.18 1011.57
1001.43 1001.59 1002.15 1002.61 1003.36 1005.67 1008.42 1010.33 1010.66 1011.24 1012.50 1012.96 1013.10 1013.56 1014.14 1014.66 1015.09 1015.28 1015.79 1016.29 1016.63 1016.79 1016.68 1016.21 1015.41 1014.82 1014.79 1014.61 1014.85 1015.02 1015.23 1015.51 1015.84 1015.83 1015.61 1015.43 1015.30 1015.28 1015.29 1015.25 1015.08 1014.83 1014.65 1014.59 1014.37 1014.00 1013.38 1012.73 1012.28 1011.93 1011.61 1011.23 1010.87 1010.25
1002.52 1003.30 1003.64 1003.79 1005.15 1006.81 1009.08 1010.40 1011.26 1012.16 1012.83 1013.33 1013.81 1014.27 1015.31 1015.58 1015.97 1016.28 1016.53 1016.80 1017.05 1016.75 1015.94 1014.98 1014.39 1014.11 1014.20 1014.30 1014.49 1014.68 1014.86 1015.24 1015.29 1015.10 1014.85 1014.68 1014.44 1014.36 1014.21 1014.13 1014.03 1014.03 1013.91 1013.53 1012.96 1012.31 1012.14 1011.70 1011.11 1010.79 1010.42 1009.97 1009.60 1009.31
1004.86 1004.45 1004.57 1005.22 1007.02 1008.83 1010.47 1011.41 1011.79 1012.71 1013.35 1013.96 1014.45 1015.18 1015.84 1016.32 1016.75 1017.15 1017.31 1017.30 1016.58 1015.19 1014.74 1014.17 1013.84 1013.74 1013.94 1014.07 1013.94 1014.13 1014.39 1014.60 1014.53 1014.51 1014.27 1013.99 1013.70 1013.50 1013.30 1013.18 1013.14 1013.00 1012.72 1011.99 1011.50 1011.39 1010.93 1010.50 1010.08 1009.69 1009.51 1009.11 1008.79 1008.33
1005.72 1005.85 1006.90 1008.01 1009.35 1010.64 1012.24 1012.19 1012.39 1013.19 1014.00 1015.02 1015.42 1015.72 1016.31 1016.81 1017.39 1017.76 1017.42 1016.60 1015.16 1014.19 1013.90 1013.72 1013.41 1013.34 1013.40 1013.44 1013.54 1013.60 1013.72 1013.78 1013.74 1013.65 1013.32 1012.97 1012.80 1012.61 1012.35 1012.09 1011.84 1011.63 1011.16 1010.87 1010.88 1010.45 1009.93 1009.32 1009.06 1008.88 1008.46 1008.01 1007.61 1007.07
1006.65 1007.46 1008.59 1009.69 1010.60 1012.05 1012.60 1012.91 1013.34 1013.99 1014.76 1015.30 1015.75 1016.45 1017.05 1017.37 1017.83 1017.59 1016.89 1015.40 1013.93 1013.69 1013.52 1012.98 1013.03 1013.13 1013.05 1013.12 1013.03 1012.67 1012.36 1012.63 1012.76 1012.64 1012.31 1012.20 1012.10 1011.59 1011.41 1010.92 1010.40 1010.08 1010.10 1009.92 1009.66 1009.04 1008.64 1008.37 1008.19 1007.92 1007.59 1007.20 1006.85 1006.60
1007.91 1009.44 1009.73 1011.04 1011.78 1012.28 1012.94 1013.44 1013.98 1014.51 1015.25 1015.91 1016.52 1017.16 1017.64 1017.85 1017.43 1017.10 1016.20 1014.04 1013.09 1012.62 1012.10 1012.23 1012.53 1012.53 1012.44 1012.00 1011.70 1011.41 1011.13 1011.63 1011.86 1011.80 1011.03 1010.82 1010.80 1010.60 1010.19 1009.69 1009.31 1009.12 1009.26 1009.01 1008.41 1008.03 1007.58 1007.43 1007.15 1006.84 1006.51 1006.27 1005.92 1005.62
1009.20 1010.13 1010.68 1011.40 1012.36 1012.48 1013.27 1013.76 1014.26 1014.80 1015.30 1015.95 1016.60 1017.55 1017.78 1017.45 1016.88 1015.43 1013.90 1012.51 1011.73 1011.22 1011.24 1011.44 1011.55 1011.64 1011.52 1011.30 1010.99 1010.46 1010.17 1010.23 1010.66 1010.63 1009.59 1009.43 1009.76 1009.83 1009.52 1009.12 1008.41 1007.34 1008.04 1007.92 1007.61 1007.08 1006.55 1006.34 1006.04 1005.68 1005.30 1005.10 1004.99 1004.80
1009.90 1010.68 1011.39 1011.93 1012.43 1013.01 1013.74 1014.26 1014.47 1014.69 1015.12 1015.38 1016.25 1017.11 1017.18 1016.84 1015.40 1013.16 1011.52 1010.95 1010.63 1010.11 1009.96 1010.09 1010.40 1010.51 1010.25 1009.85 1009.44 1009.31 1009.22 1009.26 1009.50 1008.96 1008.38 1008.13 1008.33 1008.48 1008.53 1008.29 1007.50 1006.57 1006.59 1006.72 1006.63 1006.28 1005.79 1005.37 1004.99 1004.57 1004.34 1004.03 1003.89 1003.71
1009.91 1010.54 1011.38 1012.34 1012.66 1013.06 1013.55 1013.92 1014.09 1014.23 1014.29 1014.78 1015.45 1015.64 1015.09 1013.90 1012.15 1010.59 1009.97 1009.37 1009.30 1009.36 1009.59 1009.69 1009.76 1009.56 1009.34 1008.92 1008.64 1008.47 1008.24 1008.34 1008.20 1008.10 1007.72 1007.18 1007.17 1007.02 1006.99 1006.75 1006.43 1006.04 1005.90 1005.69 1005.39 1005.01 1004.75 1004.33 1003.98 1003.65 1003.35 1002.99 1002.70 1002.57
1010.35 1010.99 1011.50 1012.73 1013.05 1013.08 1013.09 1013.09 1013.06 1012.88 1012.79 1013.45 1013.55 1013.08 1012.49 1011.44 1010.08 1009.36 1008.86 1008.76 1008.85 1009.16 1009.25 1009.22 1008.59 1008.53 1008.51 1008.15 1007.91 1007.88 1007.91 1008.02 1008.14 1007.78 1007.43 1006.54 1005.83 1005.47 1005.39 1005.31 1005.24 1005.16 1005.00 1004.69 1004.13 1003.79 1003.35 1003.04 1002.75 1002.49 1002.17 1001.94 1001.67 1001.53
1010.48 1010.89 1011.49 1012.09 1012.38 1011.99 1011.34 1011.41 1011.32 1011.27 1011.58 1011.63 1011.55 1011.31 1010.77 1009.54 1008.53 1008.38 1008.40 1008.38 1008.52 1008.46 1008.09 1007.87 1007.48 1007.44 1007.22 1007.20 1006.82 1006.70 1006.71 1006.76 1006.88 1006.81 1006.24 1005.42 1004.61 1004.20 1004.23 1004.24 1004.21 1004.15 1004.03 1003.85 1003.38 1002.70 1002.07 1001.81 1001.50 1001.32 1001.21 1001.04 1000.96 1000.81
1010.55 1010.83 1011.28 1011.65 1011.57 1011.02 1010.94 1011.05 1011.10 1011.19 1011.40 1011.36 1011.27 1011.10 1009.99 1009.28 1007.93 1007.24 1007.02 1006.64 1006.99 1006.92 1006.90 1006.50 1006.17 1006.21 1006.29 1006.13 1006.18 1006.00 1005.66 1005.03 1004.92 1004.84 1004.63 1004.24 1003.95 1003.64 1003.46 1003.38 1003.35 1003.30 1003.23 1003.05 1002.70 1002.24 1001.64 1000.99 1000.68 1000.48 1000.36 1000.27 1000.15 1000.13
1011.15 1011.20 1011.57 1011.71 1011.58 1011.59 1011.70 1011.78 1011.67 1011.53 1011.35 1011.29 1010.79 1010.46 1010.22 1010.09 1009.26 1007.15 1005.41 1005.78 1005.79 1005.76 1005.25 1005.28 1005.37 1004.96 1004.69 1004.84 1004.79 1004.62 1004.25 1004.07 1004.06 1003.85 1003.67 1003.48 1003.07 1002.79 1002.60 1002.40 1002.34 1002.37 1002.28 1002.14 1001.89 1001.50 1001.00 1000.46 999.97 999.70 999.61 999.59 999.61 999.61
1011.95 1012.14 1012.49 1012.34 1012.24 1012.22 1012.39 1012.35 1012.25 1012.05 1011.93 1011.44 1010.81 1010.37 1010.05 1009.79 1008.71 1006.16 1004.60 1004.40 1004.43 1004.19 1004.10 1003.90 1003.79 1003.83 1003.83 1003.93 1004.02 1003.85 1003.55 1003.31 1003.09 1002.90 1002.62 1002.32 1001.97 1001.75 1001.63 1001.32 1001.33 1001.43 1001.38 1001.17 1000.90 1000.55 1000.08 999.81 999.36 998.98 998.91 998.99 999.06 999.03
Wind_Speed
19 19 18 15 13 12 11 11 9 6 4 5 5 5 6 7 7 4 2 3 3 2 2 1 1 2 3 2 2 5 4 3 4 5 3 2 3 3 3 2 5 8 8 5 5 5 6 8 5 3 4 3 4 7
20 19 18 17 15 14 12 13 11 9 5 8 6 5 5 5 7 3 2 1 2 2 3 3 3 3 3 3 2 4 4 1 1 3 1 1 3 2 3 2 3 5 4 1 6 0 5 6 7 6 4 4 3 6
21 21 20 19 17 16 15 15 14 11 9 9 8 6 5 4 5 5 1 1 2 2 3 3 2 3 1 4 3 3 2 2 1 3 2 2 5 1 4 4 3 5 3 3 2 4 5 5 3 4 3 2 5 5
15 22 21 20 19 17 16 16 16 14 11 10 9 8 6 2 3 3 2 1 3 3 3 4 2 2 1 2 0 2 2 2 2 1 1 2 3 1 1 3 4 3 7 6 5 5 3 4 7 3 3 2 2 4
16 17 22 22 20 18 17 17 17 14 13 11 10 8 8 4 3 2 0 1 2 3 3 2 2 2 3 1 3 3 4 3 2 2 2 3 0 2 0 2 6 8 6 6 2 7 3 9 6 4 2 2 3 4
19 19 22 24 22 19 18 18 18 16 14 11 9 7 10 9 4 2 2 2 2 2 2 2 2 1 3 3 4 4 3 3 2 2 2 1 3 3 3 4 5 6 3 2 3 5 5 7 8 4 1 4 4 5
20 21 20 26 25 22 19 19 19 18 16 13 10 7 11 10 2 2 3 2 1 2 2 1 2 2 1 0 2 2 1 1 2 2 4 1 2 3 3 5 1 5 6 6 4 7 5 4 4 3 2 4 6 6
22 22 21 26 27 25 22 20 20 20 17 15 11 11 12 9 7 2 1 2 2 1 1 2 1 2 1 2 2 0 2 2 2 1 1 3 3 3 7 8 2 4 5 4 4 3 7 6 3 2 1 3 4 4
23 23 23 25 29 26 23 21 21 21 20 17 17 18 5 2 3 1 4 1 0 2 2 2 3 2 3 2 1 2 1 3 2 3 2 3 4 8 8 6 10 7 7 9 8 6 5 4 3 4 6 7 8 9
25 24 24 25 30 29 27 24 23 23 24 26 6 4 4 2 8 5 1 2 1 1 2 3 1 3 3 3 2 3 1 2 3 2 3 4 6 8 4 3 4 7 7 9 8 4 2 2 4 6 7 7 7 9
26 25 26 26 30 31 29 26 26 26 23 2 4 3 3 4 2 1 2 3 2 3 5 2 5 4 2 3 3 2 2 1 3 3 3 3 5 2 3 9 6 8 8 7 7 6 3 1 3 6 8 8 8 9
30 28 27 28 32 33 31 29 31 16 5 7 9 7 3 3 2 3 4 3 5 5 4 4 3 0 3 1 2 3 3 1 3 2 3 4 1 1 5 10 10 8 7 6 3 1 2 3 5 7 9 10 10 10
32 31 30 31 35 35 33 33 34 28 20 3 5 5 5 4 6 8 10 5 5 6 5 4 3 3 2 3 2 2 5 4 2 3 5 5 2 5 8 8 7 5 4 2 1 3 5 7 6 8 10 11 12 12
38 37 33 35 36 35 35 36 37 22 7 3 6 9 7 6 8 7 5 5 4 5 8 5 4 1 1 3 2 4 2 2 3 4 5 0 6 7 6 4 4 3 0 4 6 6 7 6 8 9 11 11 12 13
35 34 34 37 37 36 37 40 32 7 4 5 5 8 9 3 4 4 5 6 3 6 6 5 3 2 2 3 2 3 4 4 5 4 1 2 7 6 4 2 1 4 5 6 7 7 7 8 9 11 12 11 12 13
27 24 22 35 36 37 42 29 7 4 2 4 3 5 5 6 5 5 5 5 5 6 3 2 3 3 4 3 5 6 4 5 2 2 2 6 4 2 3 3 4 6 7 8 8 9 10 11 12 13 12 12 13 13
26 4 29 37 37 42 35 9 3 4 4 5 4 2 3 4 7 6 5 5 6 6 4 3 6 4 3 3 4 4 4 1 1 2 3 3 2 4 4 5 6 8 9 9 10 11 12 12 11 9 13 15 14 13
3 16 37 43 31 18 5 4 4 4 3 3 5 7 3 3 8 5 4 6 4 2 4 3 5 5 5 5 4 3 4 3 1 1 1 2 4 6 7 10 10 9 9 9 9 10 10 9 10 10 14 14 11 12
19 21 39 39 17 9 5 3 2 5 4 4 4 4 3 5 4 6 5 4 3 2 5 3 3 4 4 4 4 2 1 2 3 2 3 5 8 10 10 8 7 8 9 11 11 10 10 13 12 12 11 10 10 11
28 29 27 21 9 5 6 4 1 5 3 3 3 3 4 4 3 4 6 4 3 2 2 3 5 4 4 3 3 2 3 3 3 5 6 6 6 7 6 7 7 10 10 11 10 16 11 11 10 10 10 11 10 12
13 11 14 6 4 7 5 3 4 3 4 3 3 3 4 3 3 2 3 2 1 3 4 4 4 4 3 2 1 3 4 4 6 6 8 8 8 7 8 8 9 8 9 9 11 12 15 11 12 11 11 11 10 10
4 11 4 8 7 6 5 4 4 3 4 3 3 3 4 3 4 3 3 2 4 4 4 3 3 4 4 4 6 7 6 6 8 7 12 12 9 8 8 8 8 9 10 13 12 11 12 11 11 11 10 11 13 11
3 5 5 5 6 6 4 2 4 3 5 4 2 3 2 3 3 2 2 4 5 3 4 4 5 4 5 3 3 5 6 8 7 7 9 9 9 9 9 10 10 11 12 11 10 10 11 17 15 13 12 13 12 12
4 5 5 5 5 5 1 3 3 4 3 2 3 4 2 3 3 2 3 4 4 2 4 9 5 4 4 5 6 8 9 5 7 7 9 8 9 11 10 11 11 11 10 9 10 12 12 12 17 12 13 14 13 13
5 5 4 6 3 4 4 3 3 3 3 3 3 2 2 1 3 4 4 5 3 6 8 5 5 6 7 9 7 7 9 5 7 9 12 10 9 8 10 11 12 11 8 10 12 14 14 12 12 13 14 13 15 15
4 3 3 3 2 3 4 4 4 4 4 3 3 3 1 2 2 7 5 4 5 5 5 6 7 6 8 8 9 9 10 5 6 8 14 10 8 8 10 12 14 14 7 8 10 14 16 14 14 17 15 18 22 19
1 3 3 3 4 5 4 3 3 3 3 5 5 5 4 4 7 7 3 4 4 4 4 5 6 7 8 9 9 8 8 7 9 12 12 12 8 7 9 12 17 15 11 10 11 13 16 16 16 16 15 14 13 13
1 3 7 5 3 1 5 3 5 7 5 4 6 7 10 10 8 4 6 3 6 2 3 3 5 8 8 9 9 10 10 9 10 9 9 11 9 9 11 11 12 22 15 13 13 13 13 14 14 14 15 14 14 11
2 4 5 4 3 3 5 6 6 5 5 7 7 6 6 5 3 3 3 3 3 3 3 4 9 5 8 8 8 7 8 7 9 15 18 13 11 8 7 8 8 9 9 10 19 20 18 16 14 12 15 12 12 11
4 5 3 4 6 7 6 7 4 3 4 5 2 2 3 5 4 3 3 3 2 5 8 9 10 8 10 9 10 10 7 8 10 11 11 13 11 7 3 5 7 7 7 9 12 15 23 17 16 12 11 9 7 8
2 3 3 3 4 3 1 1 2 2 2 3 3 4 9 5 6 8 10 10 7 8 9 11 10 7 7 8 8 9 10 6 11 16 16 12 11 11 10 8 6 6 7 10 11 11 13 12 11 11 11 11 12 12
3 4 4 4 3 2 1 1 1 3 2 3 4 4 1 1 4 5 3 4 6 8 13 11 8 10 9 8 8 8 16 10 9 8 10 10 10 11 10 8 7 7 9 10 10 10 12 14 12 11 11 12 11 10
2 2 1 2 2 2 0 1 2 3 1 3 4 4 4 5 8 6 3 5 8 8 8 8 8 7 7 6 7 8 11 8 12 17 20 22 22 18 10 7 5 6 9 10 10 11 13 15 14 13 11 10 11 11
Wind_Direction
215 214 213 216 221 217 214 208 216 208 247 263 267 298 333 358 2 309 55 4 325 316 107 270 11 179 151 244 252 115 158 193 179 228 248 184 253 171 236 133 180 180 172 194 195 230 261 155 145 228 96 159 324 332
215 217 217 217 217 216 207 207 205 201 209 255 233 261 296 337 357 317 268 28 309 291 46 19 39 23 7 26 316 173 357 100 7 252 245 327 228 176 284 208 214 223 249 215 224 111 99 132 76 98 57 356 348 318
219 215 217 218 220 217 206 199 202 203 192 238 233 231 255 313 0 347 328 348 248 226 165 203 160 86 89 22 336 253 156 31 163 10 339 345 259 227 226 215 216 227 183 240 315 152 194 173 135 70 20 10 345 324
297 215 212 216 222 218 203 196 200 202 192 217 230 223 206 260 359 319 307 6 285 309 272 122 158 139 8 352 335 333 14 123 75 243 269 275 267 172 310 350 277 38 157 213 246 189 179 164 135 73 75 61 348 321
300 265 212 211 218 219 207 194 196 195 192 205 222 217 178 149 107 62 29 24 353 302 325 89 137 81 352 244 152 153 188 203 205 210 229 237 328 247 192 293 235 184 188 196 259 107 31 112 103 102 68 36 3 325
298 287 237 210 211 216 211 197 190 185 187 194 207 222 163 155 163 292 261 145 7 332 264 248 77 105 59 99 129 130 138 159 206 229 228 230 30 278 267 254 260 194 220 353 138 112 80 112 122 94 67 352 343 325
288 292 275 218 210 210 211 197 186 181 179 187 184 181 158 155 197 265 338 19 348 296 270 254 195 106 21 178 89 118 162 151 238 181 211 247 183 245 262 251 49 187 174 152 132 133 117 140 115 65 20 343 329 301
281 282 283 234 208 206 203 197 183 177 174 168 157 145 132 126 115 221 89 350 289 282 280 258 171 203 202 169 149 349 160 196 189 306 187 204 145 206 249 238 205 151 155 148 117 71 86 111 117 99 273 248 311 330
274 279 280 258 207 201 197 192 183 170 163 147 128 125 126 185 215 116 117 98 337 302 261 205 208 185 180 107 80 151 260 197 75 251 219 197 189 221 229 227 191 177 176 156 138 126 109 89 45 17 357 359 347 335
273 271 272 272 210 198 193 187 179 164 149 131 125 165 182 138 120 143 155 211 198 204 237 243 85 161 205 170 147 140 230 262 231 168 127 230 258 256 241 219 182 150 135 138 129 127 89 64 19 352 336 322 310 303
269 265 265 274 211 195 186 182 170 154 136 166 141 135 81 134 145 171 188 215 158 232 196 205 194 160 200 170 149 222 183 198 252 114 242 242 258 235 164 154 126 129 128 110 105 113 124 176 298 310 309 302 294 291
264 262 261 265 208 190 180 173 160 153 145 137 112 101 121 158 116 198 196 166 213 221 169 181 158 39 142 246 161 180 180 178 239 124 251 251 230 147 163 142 136 137 137 126 123 145 286 294 305 296 294 294 293 289
262 259 257 251 198 185 174 166 160 128 115 67 84 142 148 156 190 202 185 194 204 166 157 157 139 158 160 227 93 162 184 209 123 208 238 246 118 146 135 124 113 89 90 69 326 276 277 284 287 277 280 279 281 281
258 250 242 221 186 178 166 158 144 136 98 135 154 158 190 174 228 189 179 121 93 122 141 137 110 181 110 170 152 168 113 166 222 238 241 175 160 148 126 92 101 79 336 264 265 272 273 265 269 271 268 271 275 276
237 224 213 191 180 170 157 149 150 100 118 155 161 188 191 155 80 98 108 119 109 126 124 117 119 204 140 145 200 139 170 223 227 243 350 140 135 125 110 110 262 293 293 283 281 269 259 262 265 270 268 273 275 281
194 177 182 174 167 155 146 139 110 84 111 142 149 143 148 138 135 153 166 130 144 130 91 80 137 177 186 188 183 205 201 219 197 201 120 125 124 169 234 246 273 287 280 278 274 269 267 264 262 267 280 278 279 276
145 187 163 154 145 135 133 92 103 99 134 161 146 166 149 99 139 145 157 133 148 136 157 149 187 181 110 197 206 198 218 176 172 172 169 191 251 316 298 287 282 271 266 264 261 257 259 267 279 282 277 277 275 272
86 140 136 125 119 101 54 51 91 104 148 123 145 143 118 115 125 129 116 132 126 168 146 165 118 192 197 187 200 196 205 207 221 204 235 252 278 272 265 266 263 261 262 262 259 266 270 271 268 265 265 265 266 266
63 103 126 130 115 94 97 84 50 98 70 86 88 86 83 90 53 102 106 104 62 68 116 161 172 195 205 208 200 164 148 180 233 263 267 251 233 244 252 259 264 271 269 268 271 271 273 272 268 271 274 276 267 269
65 72 73 74 69 88 89 87 73 90 119 106 74 75 63 72 80 96 104 104 116 157 176 201 213 203 198 193 184 179 186 189 232 269 265 265 263 259 240 239 255 265 274 281 274 269 266 265 262 259 255 252 258 263
31 43 52 61 72 67 81 86 73 69 95 82 88 65 79 99 104 122 99 93 123 215 227 224 229 229 201 251 200 199 229 212 242 253 275 281 274 272 274 272 264 262 262 262 261 264 267 262 266 266 264 267 267 267
22 14 46 35 56 62 76 23 84 89 69 82 76 83 117 127 130 115 113 173 235 228 202 207 217 217 209 213 227 206 227 231 243 256 266 271 272 270 260 256 261 259 256 257 265 273 272 272 274 274 276 276 277 274
42 30 51 46 77 54 48 332 71 46 98 120 130 107 112 120 90 157 184 236 259 231 211 222 243 221 235 242 222 244 234 237 255 257 262 261 265 266 264 266 263 261 263 270 270 269 267 269 277 278 273 271 269 269
30 45 51 58 68 93 105 67 65 79 93 100 115 111 147 113 144 164 241 248 231 201 209 224 205 244 247 231 246 249 253 220 237 250 254 258 261 266 270 268 270 269 271 275 273 270 269 271 272 275 273 273 273 275
55 12 64 64 46 101 98 99 83 84 99 132 133 147 135 166 171 188 229 254 204 223 229 200 198 215 238 256 263 256 258 218 231 244 263 259 268 275 275 274 273 271 272 267 267 270 272 272 269 268 269 269 271 276
56 31 47 102 113 94 134 120 136 129 128 137 140 89 166 149 171 238 219 219 224 219 203 195 206 217 234 229 251 260 263 247 203 240 262 269 263 255 266 274 283 283 255 257 269 275 277 278 277 274 274 276 278 281
167 126 87 41 80 97 82 60 72 110 158 171 156 157 149 181 230 245 241 218 216 213 203 206 200 212 235 253 253 259 260 246 222 249 269 276 266 253 251 261 271 274 286 277 273 273 278 281 281 279 279 277 273 271
133 134 143 145 87 61 132 152 166 185 182 153 135 183 184 199 225 217 209 215 207 195 219 221 221 232 245 259 267 276 279 274 274 274 275 268 255 250 247 250 255 267 269 270 270 273 272 272 271 273 271 270 274 269
132 137 120 112 144 173 186 177 202 210 163 167 182 200 221 221 243 221 234 201 175 160 213 251 265 225 239 250 255 251 252 259 267 267 266 271 281 261 218 234 246 253 259 264 273 273 273 271 267 265 264 264 268 271
160 177 128 156 166 207 210 186 199 167 178 188 214 285 251 251 247 199 241 207 195 233 245 250 260 265 267 272 278 272 241 227 223 232 253 263 261 267 202 220 237 251 263 274 283 289 286 276 277 274 270 270 270 272
134 138 122 166 227 225 157 77 77 122 190 211 200 234 254 295 293 264 246 252 242 242 249 257 264 246 243 254 251 262 275 247 225 231 235 253 265 265 260 257 258 262 278 282 283 287 291 280 266 266 265 262 261 265
173 193 165 198 264 47 345 162 181 221 205 219 233 174 288 245 259 271 226 161 220 237 250 249 247 261 251 238 245 245 249 267 269 257 255 255 260 258 256 256 253 259 270 275 279 279 286 287 278 263 262 263 261 263
98 110 75 309 301 293 222 147 35 312 252 248 247 209 201 197 238 259 290 206 226 235 241 240 235 239 253 250 245 261 272 270 276 280 278 274 267 263 256 241 243 255 262 264 267 278 282 280 280 275 268 264 268 267